Weather History for Alva, OK

Change the Weather History Date:

Sunday, November 18, 2012

  Actual Average Record
Temperature  
Mean Temperature 54 °F -  
Max Temperature 68 °F 60 °F 80 °F (2007)
Min Temperature 41 °F 35 °F 12 °F (2014)
Degree Days  
Heating Degree Days 10    
Growing Degree Days 4 (Base 50)    
Moisture  
Dew Point 36 °F    
Average Humidity 50    
Maximum Humidity 71    
Minimum Humidity 34    
Precipitation  
Precipitation 0.00 in - - ()
Sea Level Pressure  
Sea Level Pressure 30.09 in    
Wind  
Wind Speed 15 mph (South)    
Max Wind Speed 31 mph    
Max Gust Speed 38 mph    
Visibility 10 miles    
Events      
Averages and records for this station are not official NWS values.
T = Trace of Precipitation, MM = Missing Value Source: NWS Daily Summary

Daily Weather History Graph

Daily Weather History Graph

Search for Another Location

Airport:

Trip Planner

Search our weather history database for the weather conditions in past years. The results will help you decide how hot, cold, wet, or windy it might be!

Date:

Astronomy

Nov. 18, 2012 Rise Set
Actual Time 7:16 AM CST 5:23 PM CST
Civil Twilight 6:48 AM CST 5:51 PM CST
Nautical Twilight 6:17 AM CST 6:22 PM CST
Astronomical Twilight 5:46 AM CST 6:53 PM CST
Moon 11:45 AM CST (11/18) 10:42 PM CST (11/18)
Length of Visible Light 11h 02m
Length of Day
10h 06m
Waxing Crescent, 30% of the Moon is Illuminated
Nov 18
Waxing Crescent
Nov 20
First Quarter
Nov 28
Full
Dec 6
Last Quarter
Dec 13
New

Hourly Weather History & Observations

Time (CST) Temp. Windchill Dew Point Humidity Pressure Visibility Wind Dir Wind Speed Gust Speed Precip Events Conditions
12:15 AM 48.2 °F - 28.4 °F 46% 30.18 in 10.0 mi South 12.7 mph - N/A   Partly Cloudy
12:35 AM 46.4 °F 41.1 °F 28.4 °F 50% 30.18 in 10.0 mi South 11.5 mph - N/A   Partly Cloudy
12:55 AM 46.4 °F 41.5 °F 30.2 °F 53% 30.17 in 10.0 mi SSE 10.4 mph - N/A   Partly Cloudy
1:15 AM 46.4 °F 41.1 °F 30.2 °F 53% 30.17 in 10.0 mi South 11.5 mph - N/A   Partly Cloudy
1:35 AM 44.6 °F 38.8 °F 30.2 °F 57% 30.17 in 10.0 mi South 11.5 mph - N/A   Clear
1:55 AM 44.6 °F 38.8 °F 30.2 °F 57% 30.16 in 10.0 mi South 11.5 mph - N/A   Clear
2:15 AM 44.6 °F 38.8 °F 30.2 °F 57% 30.16 in 10.0 mi SSE 11.5 mph - N/A   Partly Cloudy
2:35 AM 44.6 °F 39.2 °F 30.2 °F 57% 30.16 in 10.0 mi SSE 10.4 mph - N/A   Clear
2:55 AM 44.6 °F 39.2 °F 30.2 °F 57% 30.16 in 10.0 mi SSE 10.4 mph - N/A   Clear
3:15 AM 44.6 °F 39.2 °F 30.2 °F 57% 30.15 in 10.0 mi SSE 10.4 mph - N/A   Clear
3:35 AM 44.6 °F 39.7 °F 30.2 °F 57% 30.15 in 10.0 mi South 9.2 mph - N/A   Clear
3:55 AM 44.6 °F 39.7 °F 30.2 °F 57% 30.15 in 10.0 mi South 9.2 mph - N/A   Clear
4:15 AM 42.8 °F 38.0 °F 30.2 °F 61% 30.14 in 10.0 mi South 8.1 mph - N/A   Clear
4:35 AM 41.0 °F 34.7 °F 30.2 °F 65% 30.14 in 10.0 mi South 10.4 mph - N/A   Partly Cloudy
4:55 AM 42.8 °F 37.0 °F 30.2 °F 61% 30.14 in 10.0 mi SSE 10.4 mph - N/A   Partly Cloudy
5:15 AM 42.8 °F 37.5 °F 30.2 °F 61% 30.14 in 10.0 mi SSE 9.2 mph - N/A   Clear
5:35 AM 42.8 °F 38.0 °F 30.2 °F 61% 30.15 in 10.0 mi South 8.1 mph - N/A   Clear
5:55 AM 42.8 °F 38.0 °F 30.2 °F 61% 30.14 in 10.0 mi South 8.1 mph - N/A   Partly Cloudy
6:15 AM 42.8 °F 35.8 °F 30.2 °F 61% 30.14 in 10.0 mi SSE 13.8 mph - N/A   Scattered Clouds
6:35 AM 42.8 °F 37.5 °F 30.2 °F 61% 30.14 in 10.0 mi South 9.2 mph - N/A   Partly Cloudy
6:55 AM 42.8 °F 37.0 °F 30.2 °F 61% 30.15 in 10.0 mi South 10.4 mph - N/A   Partly Cloudy
7:15 AM 41.0 °F 34.7 °F 32.0 °F 70% 30.14 in 10.0 mi South 10.4 mph - N/A   Clear
7:35 AM 42.8 °F 37.5 °F 32.0 °F 66% 30.15 in 10.0 mi SSE 9.2 mph - N/A   Clear
7:55 AM 44.6 °F 40.2 °F 32.0 °F 61% 30.15 in 9.0 mi SSE 8.1 mph - N/A   Clear
8:15 AM 44.6 °F 38.1 °F 32.0 °F 61% 30.14 in 10.0 mi SSE 13.8 mph - N/A   Clear
8:35 AM 46.4 °F 39.8 °F 32.0 °F 57% 30.14 in 10.0 mi SSE 16.1 mph - N/A   Clear
8:55 AM 50.0 °F - 32.0 °F 50% 30.13 in 10.0 mi South 17.3 mph 24.2 mph N/A   Clear
9:15 AM 50.0 °F - 32.0 °F 50% 30.13 in 10.0 mi South 19.6 mph 24.2 mph N/A   Clear
9:35 AM 51.8 °F - 32.0 °F 47% 30.13 in 10.0 mi South 17.3 mph - N/A   Clear
9:55 AM 53.6 °F - 32.0 °F 44% 30.13 in 10.0 mi South 18.4 mph - N/A   Clear
10:15 AM 55.4 °F - 32.0 °F 41% 30.13 in 10.0 mi South 17.3 mph - N/A   Clear
10:35 AM 57.2 °F - 33.8 °F 41% 30.12 in 10.0 mi South 16.1 mph - N/A   Clear
10:55 AM 62.6 °F - 35.6 °F 37% 30.11 in 10.0 mi South 23.0 mph - N/A   Clear
11:15 AM 62.6 °F - 35.6 °F 37% 30.10 in 10.0 mi South 24.2 mph 29.9 mph N/A   Clear
11:35 AM 64.4 °F - 35.6 °F 34% 30.07 in 10.0 mi South 26.5 mph 32.2 mph N/A   Clear
11:55 AM 64.4 °F - 35.6 °F 34% 30.06 in 10.0 mi South 26.5 mph 32.2 mph N/A   Clear
12:15 PM 64.4 °F - 37.4 °F 37% 30.06 in 10.0 mi South 25.3 mph 33.4 mph N/A   Clear
12:35 PM 64.4 °F - 37.4 °F 37% 30.05 in 10.0 mi SSW 25.3 mph 34.5 mph N/A   Scattered Clouds
12:55 PM 64.4 °F - 37.4 °F 37% 30.04 in 10.0 mi South 25.3 mph 29.9 mph N/A   Scattered Clouds
1:15 PM 66.2 °F - 37.4 °F 35% 30.03 in 10.0 mi South 28.8 mph 38.0 mph N/A   Partly Cloudy
1:35 PM 66.2 °F - 37.4 °F 35% 30.02 in 10.0 mi South 24.2 mph 33.4 mph N/A   Clear
1:55 PM 66.2 °F - 37.4 °F 35% 30.02 in 10.0 mi South 26.5 mph 35.7 mph N/A   Clear
2:15 PM 66.2 °F - 37.4 °F 35% 30.01 in 10.0 mi South 25.3 mph 38.0 mph N/A   Clear
2:35 PM 66.2 °F - 37.4 °F 35% 30.01 in 10.0 mi South 25.3 mph 35.7 mph N/A   Clear
2:55 PM 66.2 °F - 37.4 °F 35% 30.01 in 10.0 mi South 25.3 mph 33.4 mph N/A   Clear
3:15 PM 68.0 °F - 39.2 °F 35% 30.01 in 10.0 mi South 31.1 mph 36.8 mph N/A   Clear
3:35 PM 68.0 °F - 39.2 °F 35% 30.01 in 10.0 mi South 27.6 mph 35.7 mph N/A   Clear
3:55 PM 68.0 °F - 41.0 °F 37% 30.01 in 10.0 mi SSW 31.1 mph 38.0 mph N/A   Clear
4:15 PM 66.2 °F - 41.0 °F 40% 30.02 in 10.0 mi South 25.3 mph 31.1 mph N/A   Clear
4:35 PM 66.2 °F - 41.0 °F 40% 30.03 in 10.0 mi South 24.2 mph 35.7 mph N/A   Clear
4:55 PM 64.4 °F - 41.0 °F 42% 30.03 in 10.0 mi South 20.7 mph 26.5 mph N/A   Clear
5:15 PM 62.6 °F - 41.0 °F 45% 30.03 in 10.0 mi South 17.3 mph - N/A   Partly Cloudy
5:35 PM 60.8 °F - 41.0 °F 48% 30.03 in 10.0 mi South 15.0 mph - N/A   Clear
5:55 PM 59.0 °F - 41.0 °F 51% 30.04 in 10.0 mi South 16.1 mph - N/A   Clear
6:15 PM 60.8 °F - 41.0 °F 48% 30.05 in 10.0 mi South 16.1 mph - N/A   Partly Cloudy
6:35 PM 62.6 °F - 41.0 °F 45% 30.05 in 10.0 mi South 17.3 mph - N/A   Mostly Cloudy
6:55 PM 60.8 °F - 41.0 °F 48% 30.05 in 10.0 mi South 16.1 mph 20.7 mph N/A   Overcast
7:15 PM 60.8 °F - 41.0 °F 48% 30.05 in 10.0 mi South 16.1 mph - N/A   Overcast
7:35 PM 59.0 °F - 41.0 °F 51% 30.05 in 10.0 mi South 15.0 mph - N/A   Overcast
7:55 PM 59.0 °F - 41.0 °F 51% 30.05 in 10.0 mi South 15.0 mph - N/A   Overcast
8:15 PM 59.0 °F - 41.0 °F 51% 30.05 in 10.0 mi South 17.3 mph 21.9 mph N/A   Overcast
8:35 PM 59.0 °F - 39.2 °F 48% 30.05 in 10.0 mi South 18.4 mph - N/A   Overcast
8:55 PM 57.2 °F - 39.2 °F 51% 30.05 in 10.0 mi South 17.3 mph - N/A   Mostly Cloudy
9:15 PM 59.0 °F - 41.0 °F 51% 30.06 in 10.0 mi South 16.1 mph - N/A   Overcast
9:35 PM 57.2 °F - 41.0 °F 55% 30.06 in 10.0 mi South 16.1 mph 24.2 mph N/A   Overcast
9:55 PM 57.2 °F - 41.0 °F 55% 30.07 in 10.0 mi South 18.4 mph 23.0 mph N/A   Overcast
10:15 PM 57.2 °F - 41.0 °F 55% 30.06 in 10.0 mi South 18.4 mph - N/A   Overcast
10:35 PM 55.4 °F - 41.0 °F 58% 30.07 in 10.0 mi South 15.0 mph - N/A   Overcast
10:55 PM 55.4 °F - 42.8 °F 63% 30.06 in 10.0 mi South 12.7 mph - N/A   Overcast
11:15 PM 53.6 °F - 42.8 °F 67% 30.06 in 10.0 mi South 12.7 mph - N/A   Overcast
11:35 PM 53.6 °F - 42.8 °F 67% 30.06 in 10.0 mi South 12.7 mph - N/A   Mostly Cloudy
11:55 PM 51.8 °F - 42.8 °F 71% 30.06 in 10.0 mi South 12.7 mph - N/A   Partly Cloudy